DMSP 5D-2 F13 DEB, 40465

Orbit data source: Space-Track

DMSP 5D-2 F13 DEB, 40465 is space debris in SSO originally from a launch on Fri, 24 Mar 1995 UTC launched from the Air Force Western Test Range (AFWTR). Debris objects in space refer to the collection of defunct objects orbiting the Earth. Examples of debris include non-operational satellites, rocket bodies, and fragments generated from explosions, collisions, or faulty payload assembly.

Loading next visibility...
Identifier
40465, 1995-015BH
Orbit
SSO
Country
Flag of USUS
Related business
Manufacturer
Unknown
Mission
Spacecraft
Bus & Motor
Unknown
Mass
Unknown
Launch date (UTC)
1995-03-24 (31 years ago)
Launch vehicle
Unknown
Launch site
Air Force Western Test Range (AFWTR)
Object type
Payload
Rocket body
Debris
Shape & HBR
Unknown shape, 0.1 m
Radar Cross Section
Small (<0.1 m²)

Expand to show TLE details & history
Last TLE update: 1 day ago

TLE from 1 day ago
0 DMSP 5D-2 F13 DEB
1 40465U 95015BH  26034.84023560  .00004330  00000-0  18671-2 0  9997
2 40465  98.9702  60.0869 0039778 100.5014 260.0649 14.24617674561292
Epoch: 2026-02-03T20:09Z
TLE epoch observation values (Epoch: 2026-02-03T20:09:56.355Z)
Latitude
-0.00011°
Longitude
-16.41329°
Altitude
817.735 km
Speed
7.442 km/s
True Right ascension
04h 00m 20s
True Declination
0° 00' 00"
Sunlit
Object was in daylight at epoch
Visualization orbit readout
Latitude
Unknown
Longitude
Unknown
Altitude
Unknown
Speed
Unknown
Apparent Right ascension
Unknown
Apparent Declination
Unknown
Sunlit
N/A
Visualization observer readout
Local Sidereal Time
22:20:26
Azimuth
Unknown
Elevation
Unknown
Doppler factor
Unknown
Orbital elements
Apogee altitude
835.524 km
Perigee altitude
778.363 km
Semi-major axis
7,185.08 km
Eccentricity
0.00398
Inclination
98.9702°
RAAN
60.0869°
Arg. of periapsis
100.5014°
True anomaly
259.6163°
Mean anomaly
260.0649°
Eccentric anomaly
259.84056°
Mean motion
3.56366 °/min
Orbital period
101.02 mins
BSTAR
0.0018671
Loading maneuver chart data...
Computing Atmospheric mass density...

Documentation

Showing up to 5 results
|